Tracking 18030 objects as of 28-March-2017
HD Live streaming from Space Station
objects crossing your sky now

DELTA 1 DEB

Track DELTA 1 DEB now!
10-day predictions


NORAD ID: 2888
Int'l Code: 1965-089D
Perigee: 1,159.9 km
Apogee: 2,330.4 km
Inclination: 59.2 °
Period: 121.3 minutes
Semi major axis: 8116 km
RCS: 0.0459 m2 (small)
Launch date: November 6, 1965
Source: United States (US)
Launch site: AIR FORCE EASTERN TEST RANGE (AFETR)

Note: This is SATELLITE DEBRIS
Your satellite tracking list
Your tracking list is empty





NASA's NSSDC Master Catalog

Two Line Element Set (TLE):
1  2888U 65089D   17086.79749392 -.00000069 +00000-0 +30308-4 0  9990
2  2888 059.1988 262.6107 0721087 152.8754 314.5005 11.87340898174479
Source of the keplerian elements: AFSPC